Hourly Data Report for October 24, 2015

All times are specified in Local Standard Time (LST). Add 1 hour to adjust for Daylight Saving Time where and when it is observed.

HALL BEACH A
NUNAVUT

68°46'33.000" N
81°14'33.000" W
9.10 m
2402354
71293
YUX

Download Data

Hourly Data (October 2015)
Hourly Data Report for October 24, 2015
Temp Definition
°C
Dew Point Temp Definition
°C
Rel Hum Definition
%
Wind Dir Definition
10's deg

Wind Spd Definition
km/h
Visibility Definition
km
Stn Press Definition
kPa
Hmdx Definition


Wind Chill Definition


Weather Definition


TIME
00:00 Legend Double Dagger -7.4 -8.9 89 36 41 1.6 99.64   -17 Snow
01:00 Legend Double Dagger -7.4 -9.2 87 1 43 2.4 99.62   -18 Snow
02:00 Legend Double Dagger -7.7 -9.8 85 35 43 4.0 99.57   -18 Snow
03:00 Legend Double Dagger -8.2 -10.1 86 35 43 4.0 99.53   -19 Snow
04:00 Legend Double Dagger -9.0 -10.6 88 34 45 3.2 99.50   -20 Snow
05:00 Legend Double Dagger -10.4 -11.6 91 33 41 6.4 99.49   -21 Fog
06:00 Legend Double Dagger -10.0 -11.3 90 33 41 6.4 99.45   -21 Fog
07:00 Legend Double Dagger -10.3 -11.6 90 33 46 2.4 99.41   -22 Snow
08:00 Legend Double Dagger -11.7 -12.9 91 33 48 2.0 99.39   -24 Snow,Blowing Snow
09:00 Legend Double Dagger -11.9 -13.2 90 33 50 2.4 99.38   -24 Snow,Blowing Snow
10:00 Legend Double Dagger -11.8 -13.4 88 32 41 4.8 99.33   -23 Fog
11:00 Legend Double Dagger -12.1 -13.6 89 32 45 2.0 99.28   -24 Snow,Blowing Snow
12:00 Legend Double Dagger -13.1 -14.8 87 31 46 2.0 99.24   -26 Snow,Blowing Snow
13:00 Legend Double Dagger -12.4 -14.1 87 32 50 1.6 99.22   -25 Snow,Blowing Snow
14:00 Legend Double Dagger -12.3 -13.9 88 32 54 1.6 99.18   -25 Snow,Blowing Snow
15:00 Legend Double Dagger -12.6 -14.2 88 32 54 1.2 99.16   -26 Snow,Blowing Snow
16:00 Legend Double Dagger -13.4 -15.1 87 32 45 3.2 99.16   -26 Snow,Blowing Snow
17:00 Legend Double Dagger -13.9 -15.6 87 31 45 4.8 99.15   -27 Fog
18:00 Legend Double Dagger -14.4 -16.3 86 31 45 4.0 99.13   -27 Blowing Snow
19:00 Legend Double Dagger -14.8 -16.7 86 31 46 3.2 99.10   -28 Snow,Blowing Snow
20:00 Legend Double Dagger -14.9 -17.0 84 31 39 11.3 99.09   -27 LegendNANA
21:00 Legend Double Dagger -15.1 -17.2 84 32 45 4.8 99.02   -28 Fog
22:00 Legend Double Dagger -15.3 -17.4 84 31 37 8.1 99.05   -27 Fog
23:00 Legend Double Dagger -15.3 -17.4 84 31 43 6.4 98.95   -28 Fog

Notes on Data Quality.

Legend

  • E = Estimated
  • M = Missing
  • NA = Not Available
  • ‡ = Partner data that is not subject to review by the National Climate Archives
Date modified: